{"data":{"norad_id":69240,"intl_designator":"2026-117C","name":"STARLINK-37680","alt_names":[],"object_type":"PAYLOAD","status":"ACTIVE","operator":null,"country":"US","launch_date":"2026-05-29","launch_site_code":"AFETR","launch_vehicle":null,"mission":null,"orbit_class":"UNKNOWN","rcs_meters":null,"size_class":null,"mass_kg":null,"dimensions":null,"purposes":["comms"],"wikipedia_slug":null,"has_3d_model":false,"image_url":null,"decayed_at":null,"tle_current":{"epoch":"2026-09-19T10:34:10.888320Z","epoch_age_seconds":118561,"freshness":"FRESH","line1":"1 69240U 26117C   26262.44040380  .00011779  00000+0  35914-3 0  9998","line2":"2 69240  53.1580 158.7488 0000888  93.9546 266.1558 15.34403705 17504","mean_motion":15.34403705,"eccentricity":8.88e-5,"inclination_deg":53.158,"raan_deg":158.7488,"arg_perigee_deg":93.9546,"mean_anomaly_deg":266.1558,"bstar":0.00035914,"rev_number":1750,"period_min":93.847531474776,"perigee_km":462.08476255301,"apogee_km":463.29969382393,"semimajor_km":6840.8292281885,"source":"CELESTRAK","updated_at":"2026-09-20T09:00:44.147643Z"}}}